Coldwater, MI

5:54 AM EST on November 18, 2017 (GMT -0500)
Branch County Memorial

Weather History for KOEB - February, 2013

Change the Weather History Date:

Friday, February 22, 2013

  Actual Average (KJYM) Record (KJYM)
Temperature  
Mean Temperature 27 °F -  
Max Temperature 33 °F 39 °F 65 °F (1983)
Min Temperature 21 °F 21 °F -10 °F (1963)
Degree Days  
Heating Degree Days 38    
Moisture  
Dew Point 24 °F    
Average Humidity 86    
Maximum Humidity 94    
Minimum Humidity 75    
Precipitation  
Precipitation 0.00 in - - ()
Sea Level Pressure  
Sea Level Pressure 29.93 in    
Wind  
Wind Speed 13 mph (SE)    
Max Wind Speed 17 mph    
Max Gust Speed 26 mph    
Visibility 6 miles    
Events Snow    
Averages and records for this station are not official NWS values.
T = Trace of Precipitation, MM = Missing Value Source: NWS Daily Summary

Daily Weather History Graph

Daily Weather History Graph

Search for Another Location

Airport or City:

Trip Planner

Search our weather history database for the weather conditions in past years. The results will help you decide how hot, cold, wet, or windy it might be!

Date:

Astronomy

Feb. 22, 2013 Rise Set
Actual Time 7:25 AM EST 6:22 PM EST
Civil Twilight 6:57 AM EST 6:50 PM EST
Nautical Twilight 6:24 AM EST 7:22 PM EST
Astronomical Twilight 5:52 AM EST 7:55 PM EST
Moon 3:31 PM EST (2/22) 5:12 AM EST (2/22)
Length of Visible Light 11h 53m
Length of Day
10h 56m
Waxing Gibbous, 90% of the Moon is Illuminated
Feb 22
Waxing Gibbous
Feb 25
Full
Mar 4
Last Quarter
Mar 11
New
Mar 19
First Quarter

Hourly Weather History & Observations

Time (EST) Temp. Windchill Dew Point Humidity Pressure Visibility Wind Dir Wind Speed Gust Speed Precip Events Conditions
12:14 AM 21.7 °F 8.5 °F 16.7 °F 81% 30.14 in 10.0 mi East 15.0 mph 25.3 mph N/A   Overcast
12:34 AM 22.1 °F 8.9 °F 17.1 °F 81% 30.13 in 10.0 mi East 15.0 mph 20.7 mph N/A   Overcast
12:55 AM 22.5 °F 8.5 °F 17.2 °F 80% 30.13 in 10.0 mi East 17.3 mph 25.3 mph N/A   Overcast
1:14 AM 22.5 °F 8.5 °F 17.1 °F 80% 30.11 in 10.0 mi ESE 17.3 mph 23.0 mph N/A   Overcast
1:34 AM 22.8 °F 9.9 °F 17.2 °F 79% 30.11 in 10.0 mi ESE 15.0 mph 23.0 mph N/A   Overcast
1:55 AM 23.0 °F 10.1 °F 17.1 °F 78% 30.10 in 10.0 mi East 15.0 mph 23.0 mph N/A   Overcast
2:14 AM 23.0 °F 11.1 °F 17.1 °F 78% 30.09 in 10.0 mi ESE 12.7 mph 23.0 mph N/A   Overcast
2:34 AM 23.0 °F 10.1 °F 17.1 °F 78% 30.06 in 10.0 mi East 15.0 mph 25.3 mph N/A   Overcast
2:55 AM 23.0 °F 9.6 °F 18.0 °F 81% 30.04 in 2.5 mi East 16.1 mph 26.5 mph N/A Snow Light Snow
3:14 AM 22.1 °F 9.5 °F 19.0 °F 88% 30.02 in 0.8 mi East 13.8 mph 20.7 mph N/A Snow Snow
3:34 AM 22.1 °F 9.5 °F 19.4 °F 89% 30.01 in 1.5 mi East 13.8 mph 21.9 mph N/A Snow Light Snow
3:55 AM 22.5 °F 9.4 °F 19.4 °F 88% 29.98 in 2.0 mi East 15.0 mph 23.0 mph N/A Snow Light Snow
4:14 AM 22.6 °F 10.7 °F 19.4 °F 87% 29.99 in 2.0 mi East 12.7 mph 18.4 mph N/A Snow Light Snow
4:35 AM 22.6 °F 10.1 °F 19.8 °F 89% 29.96 in 1.0 mi East 13.8 mph 17.3 mph N/A Snow Snow
4:55 AM 22.8 °F 10.9 °F 20.3 °F 90% 29.96 in 0.8 mi East 12.7 mph 17.3 mph N/A Snow Snow
5:14 AM 23.0 °F 11.1 °F 20.3 °F 89% 29.95 in 1.5 mi East 12.7 mph 23.0 mph N/A Snow Light Snow
5:35 AM 23.0 °F 11.7 °F 20.7 °F 91% 29.95 in 0.5 mi East 11.5 mph 19.6 mph N/A Snow Snow
5:54 AM 23.0 °F 10.6 °F 20.5 °F 90% 29.93 in 1.2 mi East 13.8 mph 20.7 mph N/A Snow Light Snow
6:14 AM 23.0 °F 9.2 °F 20.3 °F 89% 29.92 in 1.0 mi East 17.3 mph 25.3 mph N/A Snow Light Snow
6:35 AM 23.2 °F 11.4 °F 20.5 °F 89% 29.91 in 1.2 mi ESE 12.7 mph 21.9 mph N/A Snow Light Snow
7:14 AM 23.4 °F 12.8 °F 20.1 °F 87% 29.92 in 2.0 mi ESE 10.4 mph 18.4 mph N/A Snow Light Snow
7:54 AM 23.0 °F 11.7 °F 20.3 °F 89% 29.92 in 1.0 mi East 11.5 mph - N/A Snow Light Snow
8:14 AM 23.0 °F 11.1 °F 20.1 °F 89% 29.91 in 2.0 mi East 12.7 mph 17.3 mph N/A Snow Light Snow
8:54 AM 23.5 °F 13.0 °F 19.8 °F 85% 29.91 in 5.0 mi ESE 10.4 mph 16.1 mph N/A   Overcast
9:54 AM 24.4 °F 12.4 °F 20.8 °F 86% 29.88 in 7.0 mi ESE 13.8 mph 20.7 mph N/A   Overcast
10:34 AM 25.3 °F 14.1 °F 21.7 °F 86% 29.87 in 10.0 mi SE 12.7 mph 18.4 mph N/A   Overcast
10:54 AM 25.5 °F 16.9 °F 22.1 °F 87% 29.86 in 10.0 mi SE 8.1 mph 16.1 mph N/A   Overcast
11:15 AM 26.1 °F 18.4 °F 22.8 °F 88% 29.86 in 10.0 mi SE 6.9 mph - N/A   Overcast
11:34 AM 26.6 °F 18.2 °F 23.4 °F 88% 29.86 in 10.0 mi SE 8.1 mph - N/A   Overcast
11:54 AM 26.8 °F 18.5 °F 23.9 °F 89% 29.88 in 7.0 mi SE 8.1 mph - N/A   Overcast
12:15 PM 27.3 °F 18.4 °F 24.4 °F 89% 29.87 in 7.0 mi SE 9.2 mph - N/A   Overcast
12:34 PM 27.5 °F 20.2 °F 24.8 °F 90% 29.86 in 7.0 mi SE 6.9 mph - N/A   Overcast
12:54 PM 28.2 °F 21.0 °F 25.3 °F 89% 29.86 in 7.0 mi SE 6.9 mph - N/A   Overcast
1:34 PM 29.3 °F 22.3 °F 26.6 °F 90% 29.84 in 7.0 mi SSE 6.9 mph - N/A   Overcast
2:14 PM 29.7 °F 22.8 °F 27.3 °F 91% 29.84 in 4.0 mi SSE 6.9 mph - N/A   Overcast
2:34 PM 30.0 °F 23.2 °F 27.9 °F 92% 29.84 in 4.0 mi SSE 6.9 mph - N/A   Overcast
2:55 PM 30.6 °F 23.8 °F 28.4 °F 92% 29.84 in 5.0 mi SSE 6.9 mph - N/A   Overcast
3:14 PM 31.1 °F 26.4 °F 29.1 °F 92% 29.84 in 4.0 mi SSE 4.6 mph - N/A   Overcast
3:34 PM 31.6 °F 26.0 °F 29.5 °F 92% 29.84 in 3.0 mi South 5.8 mph - N/A   Overcast
6:34 PM 33.1 °F 23.9 °F 31.5 °F 94% 29.85 in 4.0 mi SW 12.7 mph - N/A   Overcast
6:55 PM 33.1 °F 24.9 °F 31.1 °F 92% 29.86 in 7.0 mi SW 10.4 mph 18.4 mph N/A   Overcast
7:14 PM 32.9 °F 25.9 °F 31.1 °F 93% 29.86 in 4.0 mi SW 8.1 mph - N/A   Overcast
7:35 PM 32.9 °F 24.7 °F 31.1 °F 93% 29.86 in 5.0 mi SW 10.4 mph - N/A   Overcast
7:54 PM 32.9 °F 23.2 °F 30.6 °F 91% 29.87 in 7.0 mi SW 13.8 mph 18.4 mph N/A   Overcast
8:14 PM 32.9 °F 23.2 °F 29.8 °F 88% 29.87 in 10.0 mi SW 13.8 mph 18.4 mph N/A   Overcast
8:35 PM 32.9 °F 25.3 °F 29.3 °F 87% 29.88 in 10.0 mi SW 9.2 mph 16.1 mph N/A   Overcast
8:54 PM 32.9 °F 25.3 °F 29.1 °F 86% 29.88 in 10.0 mi SW 9.2 mph - N/A   Overcast
9:14 PM 32.5 °F 24.8 °F 28.4 °F 85% 29.88 in 10.0 mi SW 9.2 mph - N/A   Overcast
9:34 PM 32.4 °F 24.0 °F 28.2 °F 85% 29.88 in 10.0 mi SW 10.4 mph - N/A   Overcast
9:54 PM 32.2 °F 23.8 °F 28.2 °F 85% 29.88 in 10.0 mi SW 10.4 mph - N/A   Overcast
10:15 PM 32.2 °F 25.0 °F 27.5 °F 83% 29.89 in 10.0 mi SW 8.1 mph 16.1 mph N/A   Overcast
10:34 PM 32.0 °F 24.2 °F 27.5 °F 83% 29.89 in 10.0 mi SW 9.2 mph - N/A   Overcast
10:54 PM 32.0 °F 24.2 °F 27.0 °F 82% 29.88 in 10.0 mi WSW 9.2 mph - N/A   Overcast
11:15 PM 32.0 °F 23.6 °F 26.6 °F 80% 29.88 in 10.0 mi WSW 10.4 mph - N/A   Overcast
11:34 PM 32.0 °F 22.1 °F 25.2 °F 76% 29.88 in 10.0 mi WSW 13.8 mph 20.7 mph N/A   Overcast
11:54 PM 31.5 °F 22.3 °F 24.3 °F 75% 29.88 in 10.0 mi WSW 11.5 mph 19.6 mph N/A   Overcast